Lapse_Rate
6.6 6.7 6.6 6.7 6.6 6.7 6.9 6.8 7.0 7.3 7.4 7.7 7.8 7.8 7.9 7.9 8.0 8.2 8.0 8.4 8.4 8.4 8.5 8.3 8.4 8.4 8.2 8.0 8.1 8.1 8.5 9.5 9.5 8.7 7.8 7.6 7.5 7.3 7.7 7.0 6.7 7.0 6.8 7.0 6.9
6.7 6.8 6.7 6.8 6.9 6.8 6.9 6.8 7.2 7.5 7.5 7.7 7.9 7.9 7.9 8.0 8.2 8.3 8.3 8.3 8.3 8.4 8.4 8.4 8.6 8.6 8.1 8.3 8.1 8.3 8.7 9.6 8.7 8.4 7.4 7.7 7.4 6.6 7.4 7.0 6.9 6.7 7.1 7.6 7.2
6.7 6.9 6.9 6.8 6.8 6.8 6.9 6.9 7.4 7.5 7.6 7.9 8.0 7.9 8.1 8.3 8.2 7.8 8.2 8.3 8.3 8.2 8.4 7.9 8.1 8.2 8.4 8.5 8.3 8.5 9.0 9.1 8.0 8.4 8.1 7.3 7.1 7.2 7.4 7.3 7.7 7.1 8.2 7.8 7.1
6.7 6.9 6.8 6.7 6.8 6.9 6.9 7.0 7.6 7.7 7.8 8.0 8.0 8.0 8.2 8.2 8.3 7.9 8.1 8.3 8.4 8.4 8.2 7.9 8.1 8.2 8.5 8.5 8.4 8.7 8.8 8.8 8.6 8.2 7.9 7.8 7.6 8.4 6.4 6.5 7.5 7.7 7.9 7.8 7.6
6.7 6.8 6.7 6.8 6.8 7.0 6.9 7.1 7.6 7.7 7.7 8.0 8.0 8.1 8.0 8.0 8.0 8.0 8.1 8.2 8.4 8.3 8.3 8.1 8.2 8.3 8.6 8.8 8.6 8.7 9.0 8.6 8.4 8.3 8.5 8.1 7.6 7.8 8.5 8.3 7.7 7.4 7.8 7.7 7.7
6.7 6.7 6.7 6.9 6.9 7.0 6.9 7.3 7.6 7.7 7.7 7.9 7.9 7.9 7.8 7.9 7.9 8.1 8.2 8.4 8.4 8.3 8.0 8.1 8.2 8.4 8.9 9.0 9.3 9.0 8.9 8.7 8.6 8.6 8.3 8.5 8.8 8.6 8.1 8.2 7.6 7.4 7.4 7.3 7.2
6.7 6.7 6.7 6.9 6.8 7.0 7.0 7.3 7.5 7.6 7.7 7.9 7.8 7.7 7.9 8.0 8.0 8.3 8.4 8.5 8.4 8.4 8.0 8.0 8.0 8.2 8.5 8.8 8.7 8.6 8.7 8.7 8.6 8.5 9.0 7.9 8.6 8.3 8.1 8.0 7.5 7.6 7.5 7.2 7.2
6.6 6.6 6.7 6.9 6.8 6.9 7.1 7.3 7.4 7.3 7.7 7.8 7.7 7.7 8.0 8.1 8.2 8.4 8.4 8.6 8.9 8.6 8.1 7.8 7.6 7.8 8.2 8.4 8.7 8.8 9.6 9.4 9.2 9.1 9.0 9.3 9.2 8.3 8.0 8.0 7.9 7.8 7.7 7.6 7.2
6.5 6.6 6.7 6.9 6.8 6.8 7.0 7.2 7.2 7.3 7.6 7.7 7.8 7.8 7.9 8.4 8.4 8.5 8.7 8.8 8.9 8.8 8.6 8.5 8.5 8.6 8.3 8.7 9.4 9.6 9.6 9.5 9.3 9.1 9.1 9.3 9.1 8.6 8.3 8.2 8.2 8.0 7.6 7.4 7.4
6.4 6.4 6.6 6.9 6.8 6.8 6.9 7.2 7.1 7.3 7.6 7.8 7.8 7.9 8.0 8.2 8.5 8.7 8.9 9.0 9.0 9.0 8.9 8.7 8.6 8.5 8.6 9.3 9.5 9.5 9.7 9.6 9.6 9.1 9.2 9.6 9.2 8.6 8.6 8.6 8.4 8.3 8.0 7.7 7.9
6.4 6.3 6.5 6.8 6.8 6.6 6.9 7.1 7.0 7.2 7.6 7.8 7.6 7.9 8.1 8.2 8.6 8.9 9.1 8.8 9.0 8.7 8.9 8.5 8.8 9.1 9.2 9.2 9.4 9.6 9.7 9.7 9.6 9.1 9.4 9.7 9.1 8.7 8.6 8.6 8.5 8.5 8.3 8.0 7.6
6.3 6.3 6.4 6.7 6.7 6.5 6.9 6.9 6.5 7.0 7.2 7.8 8.0 8.1 8.3 8.5 8.7 8.8 8.8 8.9 8.8 9.1 8.7 8.5 8.4 9.2 9.4 9.4 9.6 9.7 9.7 9.6 9.4 8.9 9.1 9.4 9.5 8.9 8.7 8.7 8.6 8.6 8.3 8.0 7.6
6.2 6.4 6.4 6.5 6.6 6.6 6.9 6.8 6.9 7.2 7.2 7.7 7.9 8.1 8.2 8.5 8.8 9.3 9.1 9.1 9.0 8.9 8.6 8.3 9.1 9.3 9.2 9.6 9.6 9.6 9.7 9.3 9.5 9.1 9.2 9.4 9.3 8.7 8.6 8.5 8.4 8.2 8.2 7.9 7.4
6.1 6.4 6.4 6.3 6.4 6.5 6.8 6.7 6.9 7.4 7.6 8.0 8.0 8.2 8.4 8.5 8.8 8.8 9.1 9.2 9.0 8.9 9.1 8.6 8.8 9.3 9.4 9.4 9.5 9.4 9.2 9.3 9.4 9.3 9.4 9.3 9.6 9.0 8.4 8.7 8.8 8.7 7.9 7.6 7.4
6.0 6.2 6.2 6.2 6.5 6.3 6.8 6.8 7.1 7.4 8.3 8.6 8.4 8.1 8.4 8.7 9.2 8.7 9.1 9.0 8.8 9.1 8.9 8.7 9.4 9.5 9.4 8.9 9.3 8.7 9.1 9.4 9.5 9.4 9.0 9.4 9.5 8.4 8.6 8.4 8.5 8.6 8.3 7.7 8.2
5.9 6.1 6.1 6.6 6.2 6.6 6.7 6.7 7.2 7.1 8.6 8.3 8.3 8.3 8.6 8.7 8.7 9.4 9.1 9.1 8.9 9.1 9.2 8.3 9.3 9.4 9.2 9.3 9.3 9.2 9.1 9.1 9.3 9.4 9.6 9.5 9.3 9.3 8.8 8.8 8.3 8.0 7.8 7.6 7.8
5.7 6.1 6.3 6.2 5.8 6.4 6.7 6.7 7.0 7.6 8.4 8.5 8.4 8.6 8.8 8.8 8.7 8.6 8.7 9.0 9.2 8.9 9.3 9.3 9.3 9.1 9.2 9.1 9.0 9.2 9.4 9.4 9.5 9.5 9.4 9.2 9.4 9.3 9.4 8.6 8.7 7.6 7.4 6.8 7.4
5.7 6.0 6.3 6.2 6.0 6.3 6.5 6.6 7.6 8.1 8.8 8.5 8.6 8.7 8.9 8.9 8.8 8.6 9.1 9.3 9.4 9.1 8.9 9.4 8.9 8.8 8.8 9.3 9.5 9.1 9.4 9.5 9.2 9.4 9.8 8.9 9.4 9.5 9.1 8.7 8.4 7.6 6.8 6.9 7.4
5.7 6.0 6.2 6.1 6.1 6.4 6.3 6.3 7.5 8.7 8.8 8.5 8.6 8.7 8.9 8.8 8.8 8.8 8.9 9.4 9.4 9.0 9.2 9.4 8.9 8.4 8.7 8.6 9.0 9.5 8.9 9.1 9.1 8.6 8.8 9.0 9.5 9.3 8.7 8.2 7.8 7.3 6.8 6.6 6.8
5.6 6.2 6.6 6.1 6.1 6.3 6.0 6.9 8.0 8.3 8.5 8.5 8.6 8.7 8.9 8.6 8.6 8.8 9.0 9.2 8.8 8.7 9.0 9.3 9.4 8.6 8.3 8.3 8.3 8.4 8.7 8.7 8.8 8.7 8.7 9.7 9.6 9.6 8.3 7.8 7.4 7.4 6.9 6.4 6.1
5.7 6.0 6.6 6.0 6.1 6.0 5.9 7.1 8.0 8.0 7.9 8.2 8.6 8.7 9.3 8.9 8.7 8.9 9.5 8.8 8.5 8.5 8.7 9.1 8.9 8.4 7.9 8.1 9.1 8.2 8.4 8.4 8.7 8.7 8.9 8.9 9.6 8.6 8.2 7.8 7.5 7.4 7.1 6.6 6.3
5.7 5.8 6.2 6.1 5.6 5.6 6.4 7.3 7.7 8.0 7.5 7.9 8.2 8.6 8.7 8.9 8.6 8.8 9.0 8.9 8.3 8.3 8.6 8.6 8.7 8.6 8.7 8.2 8.3 8.3 8.7 8.6 8.4 8.6 8.0 7.8 8.5 8.3 8.1 7.8 7.4 7.3 7.2 6.9 6.5
5.5 5.6 6.2 6.0 5.5 6.0 6.9 7.5 7.6 7.8 7.6 7.8 8.0 8.3 8.3 8.4 8.4 8.5 8.5 8.2 8.2 8.2 8.3 8.1 8.3 8.4 8.4 8.1 7.9 8.1 8.3 8.3 8.3 7.9 8.1 7.7 8.7 7.7 8.1 8.1 7.7 7.4 7.2 6.9 6.7
5.7 5.8 6.1 5.6 5.9 6.6 7.0 7.4 7.5 7.5 7.7 7.9 8.0 7.9 8.0 8.1 8.1 8.2 8.0 8.0 8.1 8.0 8.1 8.1 8.2 8.4 8.7 9.3 9.0 8.2 8.3 8.2 7.9 7.7 8.0 8.2 8.6 8.4 7.9 7.6 7.5 7.4 7.3 7.1 6.8
5.8 6.2 5.9 5.4 5.7 6.7 7.1 7.3 7.8 7.6 7.4 7.5 7.7 7.9 8.1 8.1 8.0 8.0 7.8 8.0 7.9 7.9 7.9 7.7 7.8 8.2 8.3 8.0 8.2 8.2 8.3 8.1 7.9 8.0 8.2 8.3 8.8 8.8 8.6 8.2 7.9 7.5 7.4 7.2 6.9
5.7 6.5 6.3 6.2 6.3 6.8 7.1 7.6 7.9 7.8 7.6 7.6 8.0 8.1 8.2 8.2 8.1 8.3 8.0 7.7 7.8 8.0 7.8 7.8 7.6 7.7 7.6 7.6 7.7 7.6 7.7 7.9 8.1 8.1 8.3 8.5 8.4 8.7 8.2 7.9 7.7 7.3 7.6 7.5 7.2
6.1 6.6 6.6 6.2 6.4 6.9 7.1 7.7 7.9 8.0 7.5 7.9 8.0 8.0 7.9 7.8 7.9 8.1 8.0 7.9 7.7 7.8 7.8 7.2 7.3 7.3 7.5 7.3 7.0 6.9 7.8 7.8 8.1 8.1 8.2 8.3 8.4 8.2 7.5 7.4 7.5 7.2 7.3 7.3 7.2
Wind_Speed
12 15 14 15 16 17 15 14 16 17 14 14 14 13 14 16 21 15 14 9 6 14 10 11 17 14 12 13 11 12 10 15 10 13 12 16 14 11 3 2 11 4 2 15 15
11 15 15 15 15 17 17 14 15 16 13 12 12 12 13 15 18 21 16 8 6 14 14 16 17 15 13 13 9 10 13 13 10 9 16 9 6 8 3 1 10 7 13 17 18
10 13 15 16 16 16 16 13 14 15 14 10 11 12 13 16 10 1 11 19 13 20 15 16 12 13 15 10 13 15 14 1 13 8 15 12 7 13 5 7 10 11 17 17 16
11 12 15 16 16 15 15 12 12 13 12 8 10 12 14 9 4 7 6 22 21 15 15 10 12 14 12 11 14 12 8 7 7 12 11 14 14 19 18 17 37 18 19 16 17
12 12 14 15 16 14 14 12 11 11 9 8 9 11 9 7 12 10 15 16 17 12 12 11 12 13 10 12 13 10 7 2 2 5 9 14 17 7 12 13 19 22 17 16 15
12 11 14 13 15 13 12 11 10 8 6 6 7 11 7 10 5 7 13 15 15 16 13 12 7 8 8 11 13 9 6 5 7 6 4 9 8 13 8 16 19 19 19 16 15
13 12 14 12 13 11 11 10 9 6 3 5 5 8 8 14 3 7 10 11 10 14 12 11 7 8 4 7 4 5 8 11 10 12 8 11 8 11 8 16 17 16 16 15 15
12 10 12 11 11 11 8 7 5 2 1 3 5 7 8 5 7 7 10 7 13 12 11 5 6 11 8 3 6 10 11 13 13 11 5 14 14 9 9 15 16 17 14 14 13
12 10 9 9 8 9 6 3 3 2 2 4 5 5 6 5 8 5 11 6 9 10 5 4 6 9 8 11 9 8 7 9 10 12 11 15 17 11 11 12 14 13 14 12 12
13 10 7 9 7 8 4 3 5 7 7 6 7 6 9 7 2 3 7 9 9 10 8 6 8 8 10 10 8 7 12 14 13 10 12 10 15 11 13 14 14 15 15 14 13
13 10 7 8 8 7 8 4 5 6 7 11 1 9 2 5 5 9 10 9 8 13 7 7 6 8 7 9 9 13 9 12 14 6 10 9 11 13 12 13 14 14 14 13 12
13 9 8 7 7 13 10 6 8 7 7 19 17 12 12 3 5 7 7 7 6 10 11 8 16 10 6 5 5 5 6 12 7 9 9 9 10 10 12 14 13 13 13 13 12
14 10 8 5 11 5 13 14 4 12 6 10 13 11 7 8 10 11 10 12 8 13 12 10 3 5 6 8 8 5 9 11 12 12 14 11 13 12 10 9 9 11 13 12 12
15 11 9 18 5 9 8 13 19 4 5 11 10 8 7 7 9 1 5 3 4 5 5 3 8 5 3 5 3 10 3 10 3 9 14 16 13 21 17 16 13 13 10 11 12
16 15 21 27 6 7 7 1 4 5 5 17 13 5 6 10 7 9 3 5 12 6 7 11 10 12 11 3 5 12 7 6 7 12 5 15 9 15 13 15 15 14 14 13 14
19 18 22 9 6 12 3 4 4 5 7 8 9 11 11 12 7 11 9 6 3 6 11 13 2 3 5 2 3 4 5 6 7 10 7 16 12 14 15 15 16 16 15 15 16
21 21 19 13 4 4 5 5 6 9 7 12 16 14 15 11 10 11 16 14 11 11 11 9 8 4 5 6 5 9 9 8 8 8 10 3 6 12 7 7 14 18 18 17 16
20 20 13 15 13 5 6 8 12 14 13 4 15 14 13 10 11 11 16 17 17 13 10 12 9 12 9 10 4 9 13 9 6 6 10 7 7 3 10 3 6 18 17 17 18
19 7 5 10 21 6 8 10 14 9 11 10 12 13 14 10 6 12 14 16 15 13 13 8 6 6 2 3 7 7 8 7 5 3 7 12 16 11 6 5 8 16 18 19 19
9 6 11 14 21 7 9 15 20 3 6 12 16 16 15 15 11 14 12 5 6 5 5 1 3 3 5 4 5 8 3 4 5 4 9 5 5 5 6 6 10 15 18 19 18
10 6 8 22 13 7 12 16 17 8 8 12 17 13 14 13 14 15 10 8 6 8 5 6 7 7 4 10 11 7 10 7 4 2 4 4 2 7 3 2 9 13 17 18 18
12 11 11 15 11 11 15 22 8 10 9 9 7 9 12 12 13 11 13 6 7 7 10 6 5 5 13 5 5 10 8 10 5 6 2 3 7 3 4 2 7 10 13 16 16
13 8 8 12 13 13 18 22 13 11 12 12 11 9 9 11 10 12 11 5 5 8 5 6 7 8 7 6 7 9 11 9 4 1 8 3 3 6 6 4 5 10 13 15 18
12 10 7 8 16 18 24 19 17 7 8 11 11 10 11 8 6 8 8 4 4 4 3 1 11 10 10 6 2 12 13 12 13 7 9 10 13 7 10 7 7 8 11 16 17
13 12 14 16 19 21 20 19 22 12 10 12 11 15 12 8 9 8 9 6 6 5 6 4 7 12 14 6 6 8 10 13 17 16 13 12 13 8 7 7 7 8 9 13 15
11 12 14 17 23 20 20 22 23 18 15 14 10 15 12 9 11 10 11 9 7 10 8 5 4 2 5 8 8 11 12 14 14 17 17 17 16 15 10 4 7 6 9 11 14
8 2 13 15 22 18 17 20 22 15 2 4 11 9 10 6 8 10 8 4 3 7 10 5 4 4 4 3 4 6 16 16 16 16 14 16 15 9 4 5 8 8 8 11 12
Wind_Direction
294 301 304 306 312 313 314 317 316 306 303 307 307 309 317 311 303 258 256 260 177 222 223 197 197 213 231 230 239 241 256 246 226 181 166 121 120 91 100 160 190 287 137 120 128
289 297 303 310 313 310 311 321 314 303 304 309 307 315 318 321 297 270 251 171 177 194 211 185 190 199 213 218 209 221 231 253 50 93 168 132 128 173 134 163 233 158 96 127 140
283 296 300 305 309 312 311 321 316 307 303 312 314 315 321 318 280 161 158 175 199 195 222 202 203 204 230 215 215 218 265 138 163 85 154 144 194 160 90 328 198 147 139 137 139
274 288 298 305 309 311 311 318 312 305 307 313 314 320 318 288 310 44 199 174 184 206 232 211 201 214 232 206 213 254 256 276 125 126 128 154 198 157 92 197 245 140 136 143 133
276 288 296 303 304 306 307 313 304 301 306 317 320 326 298 242 255 72 113 144 174 210 218 201 205 220 223 210 204 232 156 274 282 133 142 279 39 109 151 131 113 122 139 142 145
273 281 292 297 302 303 305 305 295 297 295 313 323 309 257 264 52 118 132 157 174 194 208 218 234 247 252 208 203 187 257 173 175 170 169 221 150 107 77 107 122 143 144 145 153
268 276 289 298 300 298 303 297 288 287 293 310 316 284 262 248 25 136 159 191 201 210 206 225 247 253 321 223 255 222 201 170 175 176 198 214 149 88 121 129 138 145 140 146 149
258 270 284 296 295 291 291 284 264 248 273 302 298 277 265 188 268 216 206 220 216 225 259 332 270 278 274 2 206 214 207 182 166 182 180 213 123 131 153 144 153 142 142 145 141
250 255 273 282 283 280 273 236 239 232 246 245 232 243 264 109 231 216 216 217 181 201 216 284 220 230 218 240 190 211 192 164 172 207 167 224 124 130 164 166 147 149 152 150 156
242 247 260 272 265 259 207 244 182 218 207 216 260 266 245 216 98 159 194 142 159 164 182 206 208 224 222 215 195 164 237 167 161 170 188 215 113 140 173 173 168 170 166 162 169
233 241 246 254 254 206 169 199 214 195 212 233 209 257 101 343 196 209 157 194 142 183 183 208 232 236 183 214 270 197 185 185 124 146 225 189 149 162 175 184 183 186 178 177 177
222 221 233 244 226 189 252 245 334 354 277 220 250 266 272 280 242 218 168 239 185 234 142 196 210 237 204 187 250 250 236 115 122 173 252 197 174 162 177 195 188 197 194 189 168
212 208 215 197 156 179 234 233 350 357 250 179 224 246 238 191 224 197 197 223 213 186 207 310 92 156 191 193 229 236 217 158 176 182 231 197 169 177 184 182 216 207 201 195 174
206 204 184 143 170 220 224 238 249 280 256 165 204 212 193 227 222 98 268 255 216 177 107 294 196 202 217 215 256 264 102 220 195 197 215 209 234 187 172 183 196 202 201 187 182
199 195 171 182 343 206 55 203 150 192 236 159 166 103 160 212 222 173 189 171 244 234 220 191 176 201 209 73 292 109 237 208 210 240 243 189 255 139 241 192 188 185 190 174 164
190 188 174 218 264 267 1 320 191 230 221 167 164 185 187 211 218 165 178 236 223 245 234 255 31 301 51 100 266 130 168 213 239 254 252 260 225 173 189 209 180 179 176 169 164
184 180 176 176 220 194 231 189 208 216 156 169 189 187 203 180 187 203 191 196 214 210 218 178 171 120 182 145 159 203 218 225 227 217 237 268 280 270 246 161 188 183 179 173 169
178 176 213 228 243 307 207 205 226 209 205 161 180 188 209 169 195 208 195 211 216 247 248 193 183 178 178 257 235 219 251 249 277 274 272 146 244 290 28 86 247 169 180 175 177
152 196 223 223 239 268 221 205 217 213 190 181 186 191 200 177 226 203 213 215 202 222 258 237 143 133 239 228 264 184 245 324 306 292 283 286 276 176 139 156 203 173 180 182 184
179 190 223 196 187 217 222 217 226 254 214 192 188 198 192 194 204 200 195 201 167 237 282 321 266 175 129 214 214 272 26 217 226 257 256 293 274 298 169 203 200 187 187 186 188
187 202 181 167 165 208 213 202 229 190 202 204 202 193 219 187 203 197 203 144 199 184 239 265 249 149 169 211 228 182 232 233 303 291 285 303 299 56 22 231 201 208 192 191 193
196 207 150 149 187 201 213 208 213 187 199 212 272 191 223 195 206 217 225 224 164 193 209 212 244 207 230 84 306 299 267 207 229 212 227 312 286 150 128 214 196 214 200 197 201
198 171 165 191 197 199 209 213 191 205 200 198 202 212 211 208 208 223 217 78 177 210 222 184 228 225 230 206 218 239 230 238 225 326 238 239 276 170 153 214 216 217 208 207 206
191 170 154 199 219 195 203 198 201 218 203 197 201 175 188 197 211 195 192 154 190 205 355 27 243 229 244 275 300 207 241 218 215 223 245 242 281 218 201 224 219 225 228 207 212
212 195 176 182 201 196 202 200 197 180 228 196 191 204 197 207 190 206 185 160 183 157 194 237 238 238 262 291 291 282 259 224 234 237 252 263 269 284 313 296 250 219 232 228 217
214 194 175 169 197 207 194 216 194 193 182 196 215 203 206 195 208 212 196 192 185 180 197 199 228 277 254 244 264 265 256 253 243 249 254 260 275 295 332 280 270 249 238 232 221
238 80 177 165 190 202 194 212 194 180 211 257 214 167 195 84 60 44 64 59 115 178 196 185 171 182 246 359 296 288 239 248 248 248 251 263 272 342 319 268 274 258 233 238 232